Weather History for Twentynine Palms, CA

Change the Weather History Date:

Saturday, March 30, 2013

  Actual Average Record
Temperature  
Mean Temperature 72 °F -  
Max Temperature 84 °F 70 °F 88 °F (2004)
Min Temperature 63 °F 49 °F 39 °F (2007)
Cooling Degree Days 8    
Growing Degree Days 22 (Base 50)    
Moisture  
Dew Point 34 °F    
Average Humidity 26    
Maximum Humidity 37    
Minimum Humidity 13    
Precipitation  
Precipitation 0.00 in - - ()
Sea Level Pressure  
Sea Level Pressure 29.99 in    
Wind  
Wind Speed 5 mph (WSW)    
Max Wind Speed 18 mph    
Max Gust Speed 21 mph    
Visibility 10 miles    
Events      
Averages and records for this station are not official NWS values.
T = Trace of Precipitation, MM = Missing Value Source: NWS Daily Summary

Daily Weather History Graph

Daily Weather History Graph

Search for Another Location

Airport:

Trip Planner

Search our weather history database for the weather conditions in past years. The results will help you decide how hot, cold, wet, or windy it might be!

Date:

Astronomy

Mar. 30, 2013 Rise Set
Actual Time 6:34 AM PDT 7:04 PM PDT
Civil Twilight 6:08 AM PDT 7:29 PM PDT
Nautical Twilight 5:39 AM PDT 7:59 PM PDT
Astronomical Twilight 5:09 AM PDT 8:29 PM PDT
Moon 11:04 PM PDT (3/30) 8:42 AM PDT (3/30)
Length of Visible Light 13h 20m
Length of Day
12h 30m
Waning Gibbous, 85% of the Moon is Illuminated
Mar 30
Waning Gibbous
Apr 2
Last Quarter
Apr 10
New
Apr 18
First Quarter
Apr 25
Full

Hourly Weather History & Observations

Time (PDT) Temp. Dew Point Humidity Pressure Visibility Wind Dir Wind Speed Gust Speed Precip Events Conditions
12:56 AM 70.0 °F 39.0 °F 32% 30.02 in 10.0 mi West 6.9 mph - N/A   Clear
1:56 AM 66.9 °F 37.9 °F 34% 30.02 in 10.0 mi North 4.6 mph - N/A   Clear
2:56 AM 68.0 °F 37.9 °F 33% 30.02 in 10.0 mi Calm Calm - N/A   Clear
3:56 AM 66.0 °F 37.9 °F 36% 30.01 in 10.0 mi NW 4.6 mph - N/A   Scattered Clouds
4:56 AM 66.0 °F 37.0 °F 34% 29.99 in 10.0 mi NW 5.8 mph - N/A   Clear
5:56 AM 64.9 °F 37.0 °F 36% 30.02 in 10.0 mi Calm Calm - N/A   Clear
6:56 AM 63.0 °F 36.0 °F 37% 30.02 in 9.0 mi Calm Calm - N/A   Clear
7:56 AM 64.9 °F 36.0 °F 34% 30.04 in 10.0 mi Variable 4.6 mph - N/A   Clear
8:56 AM 70.0 °F 35.1 °F 28% 30.04 in 10.0 mi North 5.8 mph - N/A   Clear
9:56 AM 73.9 °F 35.1 °F 24% 30.04 in 10.0 mi Calm Calm - N/A   Clear
10:56 AM 77.0 °F 34.0 °F 21% 30.04 in 10.0 mi Calm Calm - N/A   Clear
11:56 AM 79.0 °F 33.1 °F 19% 30.02 in 10.0 mi Calm Calm - N/A   Clear
12:56 PM 82.0 °F 34.0 °F 18% 30.00 in 10.0 mi SSE 8.1 mph - N/A   Clear
1:56 PM 82.0 °F 33.1 °F 17% 29.97 in 10.0 mi East 4.6 mph 17.3 mph N/A   Partly Cloudy
2:56 PM 82.0 °F 32.0 °F 16% 29.95 in 10.0 mi SE 15.0 mph 20.7 mph N/A   Clear
3:56 PM 82.9 °F 32.0 °F 16% 29.94 in 10.0 mi East 4.6 mph - N/A   Partly Cloudy
4:56 PM 82.9 °F 30.9 °F 15% 29.92 in 10.0 mi SSE 9.2 mph - N/A   Partly Cloudy
5:56 PM 81.0 °F 25.0 °F 13% 29.92 in 10.0 mi SW 18.4 mph - N/A   Clear
6:56 PM 78.1 °F 26.1 °F 15% 29.92 in 10.0 mi SW 13.8 mph - N/A   Clear
7:56 PM 73.9 °F 32.0 °F 21% 29.93 in 10.0 mi SW 13.8 mph - N/A   Clear
8:56 PM 71.1 °F 34.0 °F 26% 29.95 in 10.0 mi Calm Calm - N/A   Clear
9:56 PM 71.1 °F 36.0 °F 28% 29.96 in 10.0 mi WSW 13.8 mph - N/A   Clear
10:56 PM 66.9 °F 35.1 °F 31% 29.97 in 10.0 mi NNW 6.9 mph - N/A   Clear
11:56 PM 66.9 °F 35.1 °F 31% 29.97 in 10.0 mi West 4.6 mph - N/A   Clear